Location: Brachbach
(49.1847°N, 9.7240°E)
Time: 02:17:55
(UTC+00:00)

ARIANE 6 FM1 Upper Stage - Pass Details

Date: 01 February 2026
Orbit: 522 x 609 km, 62.0° (Epoch: 13 February)

Event Time Altitude Azimuth Distance (km) Brightness Sun altitude
Rises 19:15:06 0° 302° (WNW) 2,674 7.1 -29.0°
Reaches altitude 10° 19:18:24 10° 331° (NNW) 1,774 5.6 -29.6°
Enters shadow 19:18:59 11° 339° (NNW) 1,680 5.4 -29.7°
